Showing default

HAWK-9A, 59446

Orbit data source: Space-Track

HAWK-9A, 59446 is a payload satellite owned by HawkEye 360 (US) in LEO that was launched on Sun, 07 Apr 2024 UTC via an FALCON 9 launch vehicle from the Air Force Eastern Test Range (AFETR). Payload-class satellites include a variety of spacecraft equipped with specific instruments for various scientific and technological missions. These include communications satellites like Starlink; space stations such as the ISS; scientific satellites like the Hubble; Earth observation satellites from companies like Planet Labs, Umbra, and HawkEye 360; GPS; miniature CubeSats for education and research; and military/defense satellites.

Loading next visibility...
Identifier
59446, 2024-066E
Orbit
LEO
Country
Flag of USUS
Related business
Manufacturer
UTIAS-SFL
Mission
Operational Commercial Sigint
Bus & Motor
HAWK2G, Unknown motor
Mass
31 kg wet, 30 kg dry
Launch date (UTC)
2024-04-07 (2 years ago)
Launch vehicle
FALCON 9
Launch site
Air Force Eastern Test Range (AFETR)
Object type
Payload
Rocket body
Debris
Shape & HBR
Box + 2 Pan, 1.0 m
Radar Cross Section
0.240 m², Medium (>0.1 m² and < 1m²)

Expand to show TLE details & history
Last TLE update: 19 hours ago

TLE from 19 hours ago
0 HAWK-9A
1 59446U 24066E   25293.81687762  .00004985  00000-0  43663-3 0  9993
2 59446  45.6085  73.4722 0004229 218.9735 141.0841 14.97849989 83924
Epoch: 2025-10-20T19:36Z
TLE epoch observation values (Epoch: 2025-10-20T19:36:18.226Z)
Latitude
-0.00004°
Longitude
109.88247°
Altitude
575.894 km
Speed
7.573 km/s
True Right ascension
04h 53m 53s
True Declination
0° 00' 00"
Sunlit
Object was in full shadow at epoch
Visualization orbit readout
Latitude
Unknown
Longitude
Unknown
Altitude
Unknown
Speed
Unknown
Apparent Right ascension
Unknown
Apparent Declination
Unknown
Sunlit
N/A
Visualization observer readout
Local Sidereal Time
09:09:52
Azimuth
Unknown
Elevation
Unknown
Doppler factor
Unknown
Orbital elements
Apogee altitude
577.969 km
Perigee altitude
572.088 km
Semi-major axis
6,953.165 km
Eccentricity
0.00042
Inclination
45.6085°
RAAN
73.4722°
Arg. of periapsis
218.9735°
True anomaly
141.11453°
Mean anomaly
141.0841°
Eccentric anomaly
141.09932°
Mean motion
3.74343 °/min
Orbital period
96.17 mins
BSTAR
0.00043663
Loading maneuver chart data...
Computing Atmospheric mass density...
Loading historical data...
Loading historical data...
Loading historical data...
Loading historical data...
Loading historical data...
Loading historical data...
Loading historical data...

Documentation

Showing up to 5 results
|